ARG1420 SABE-SAME

Flight info

Callsign ARG1420
Flight time 1h 24m
Altitude 36000
Route PAL9 NEPIS DCT NIN UL405 PAPIR PAPIR3Q
Aircraft B738/M-MSDFGHILRVWS/LB1

Departure

Time 2026-05-09 19:48
Airport Aeroparque Jorge Newbery (SABE)

Arrival

Time 2026-05-09 21:13
Airport Governor Francisco Gabrielli International Airport (SAME)
Time Latitude Longitude Altitude Speed Heading
2026-05-09 19:21 -34.55838 -58.41369 29 ft 0 kts 207°
2026-05-09 19:37 -34.55832 -58.41366 29 ft 3 kts 207°
2026-05-09 19:37 -34.55815 -58.41354 30 ft 3 kts 227°
2026-05-09 19:38 -34.55807 -58.41341 30 ft 3 kts 293°
2026-05-09 19:38 -34.55816 -58.41321 30 ft 3 kts 301°
2026-05-09 19:38 -34.55827 -58.41300 30 ft 3 kts 301°
2026-05-09 19:38 -34.55830 -58.41293 27 ft 0 kts 301°
2026-05-09 19:43 -34.55830 -58.41294 27 ft 1 kts 301°
2026-05-09 19:43 -34.55810 -58.41334 30 ft 10 kts 301°
2026-05-09 19:43 -34.55771 -58.41404 26 ft 10 kts 305°
2026-05-09 19:43 -34.55733 -58.41475 27 ft 10 kts 298°
2026-05-09 19:44 -34.55729 -58.41551 24 ft 10 kts 233°
2026-05-09 19:44 -34.55782 -58.41600 24 ft 9 kts 226°
2026-05-09 19:44 -34.55771 -58.41672 25 ft 9 kts 298°
2026-05-09 19:44 -34.55741 -58.41740 26 ft 9 kts 298°
2026-05-09 19:45 -34.55710 -58.41805 26 ft 9 kts 305°
2026-05-09 19:45 -34.55667 -58.41880 26 ft 15 kts 303°
2026-05-09 19:45 -34.55607 -58.41988 27 ft 15 kts 304°
2026-05-09 19:45 -34.55546 -58.42093 24 ft 15 kts 306°
2026-05-09 19:46 -34.55486 -58.42190 27 ft 14 kts 307°
2026-05-09 19:46 -34.55424 -58.42289 28 ft 13 kts 307°
2026-05-09 19:46 -34.55385 -58.42349 24 ft 7 kts 307°
2026-05-09 19:46 -34.55380 -58.42359 26 ft 0 kts 304°
2026-05-09 19:47 -34.55374 -58.42370 25 ft 6 kts 299°
2026-05-09 19:47 -34.55360 -58.42455 24 ft 12 kts 272°
2026-05-09 19:47 -34.55414 -58.42492 26 ft 12 kts 139°
2026-05-09 19:48 -34.55505 -58.42330 27 ft 53 kts 124°
2026-05-09 19:48 -34.55861 -58.41694 25 ft 125 kts 124°
2026-05-09 19:48 -34.56453 -58.40623 108 ft 173 kts 123°
2026-05-09 19:48 -34.57124 -58.39369 751 ft 176 kts 126°
2026-05-09 19:49 -34.57812 -58.38038 1116 ft 205 kts 128°
2026-05-09 19:49 -34.58223 -58.36286 1384 ft 237 kts 88°
2026-05-09 19:49 -34.57540 -58.34375 1739 ft 261 kts 51°
2026-05-09 19:49 -34.56366 -58.32596 2095 ft 279 kts 55°
2026-05-09 19:50 -34.55285 -58.30627 2365 ft 281 kts 59°
2026-05-09 19:50 -34.54171 -58.28667 2626 ft 284 kts 43°
2026-05-09 19:50 -34.52455 -58.27567 2925 ft 281 kts
2026-05-09 19:50 -34.50573 -58.27822 3259 ft 270 kts 329°
2026-05-09 19:51 -34.49226 -58.29258 3576 ft 254 kts 292°
2026-05-09 19:51 -34.48873 -58.31256 3906 ft 239 kts 261°
2026-05-09 19:51 -34.49200 -58.33207 4226 ft 237 kts 245°
2026-05-09 19:51 -34.49905 -58.35024 4564 ft 240 kts 240°
2026-05-09 19:52 -34.50482 -58.36338 4799 ft 241 kts 239°
2026-05-09 19:52 -34.50916 -58.37315 4969 ft 239 kts 239°
2026-05-09 19:52 -34.51713 -58.39109 5091 ft 247 kts 239°
2026-05-09 19:52 -34.52522 -58.40954 5095 ft 247 kts 239°
2026-05-09 19:53 -34.53320 -58.42797 5097 ft 246 kts 239°
2026-05-09 19:53 -34.54109 -58.44633 5114 ft 246 kts 240°
2026-05-09 19:53 -34.54897 -58.46477 5114 ft 246 kts 240°
2026-05-09 19:53 -34.55681 -58.48320 5098 ft 247 kts 240°
2026-05-09 19:54 -34.56206 -58.49557 5165 ft 250 kts 240°
2026-05-09 19:54 -34.57279 -58.52098 6283 ft 249 kts 239°
2026-05-09 19:54 -34.58069 -58.53967 7246 ft 250 kts 240°
2026-05-09 19:54 -34.58887 -58.55905 8144 ft 253 kts 240°
2026-05-09 19:55 -34.59430 -58.57191 8733 ft 255 kts 240°
2026-05-09 19:55 -34.60243 -58.59116 9619 ft 258 kts 241°
2026-05-09 19:55 -34.60962 -58.61110 10404 ft 265 kts 253°
2026-05-09 19:56 -34.61106 -58.66018 10909 ft 317 kts 269°
2026-05-09 19:56 -34.60989 -58.68745 11434 ft 328 kts 269°
2026-05-09 19:56 -34.60857 -58.71536 12151 ft 334 kts 269°
2026-05-09 19:56 -34.60725 -58.74364 12899 ft 338 kts 269°
2026-05-09 19:57 -34.60598 -58.77240 13632 ft 344 kts 268°
2026-05-09 19:57 -34.60474 -58.80167 14287 ft 349 kts 268°
2026-05-09 19:57 -34.60353 -58.83117 14956 ft 353 kts 268°
2026-05-09 19:57 -34.60232 -58.86111 15654 ft 356 kts 268°
2026-05-09 19:58 -34.60111 -58.89128 16324 ft 360 kts 268°
2026-05-09 19:58 -34.59989 -58.92183 16969 ft 364 kts 268°
2026-05-09 19:58 -34.59868 -58.95232 17610 ft 368 kts 268°
2026-05-09 19:58 -34.59743 -58.98353 18266 ft 372 kts 268°
2026-05-09 19:59 -34.59616 -59.01506 18838 ft 376 kts 268°
2026-05-09 19:59 -34.59487 -59.04691 19415 ft 379 kts 268°
2026-05-09 19:59 -34.59356 -59.07890 20044 ft 380 kts 268°
2026-05-09 19:59 -34.59223 -59.11103 20614 ft 383 kts 269°
2026-05-09 20:00 -34.59089 -59.14348 21154 ft 387 kts 269°
2026-05-09 20:00 -34.58954 -59.17620 21703 ft 390 kts 269°
2026-05-09 20:00 -34.58816 -59.20915 22244 ft 393 kts 269°
2026-05-09 20:00 -34.58676 -59.24235 22773 ft 396 kts 269°
2026-05-09 20:01 -34.58534 -59.27587 23293 ft 399 kts 269°
2026-05-09 20:01 -34.58390 -59.30966 23788 ft 402 kts 269°
2026-05-09 20:01 -34.58244 -59.34362 24220 ft 404 kts 270°
2026-05-09 20:01 -34.58097 -59.37767 24691 ft 405 kts 269°
2026-05-09 20:02 -34.57948 -59.41196 25112 ft 408 kts 269°
2026-05-09 20:02 -34.57797 -59.44640 25502 ft 411 kts 269°
2026-05-09 20:02 -34.57645 -59.48114 25902 ft 414 kts 269°
2026-05-09 20:03 -34.57333 -59.55144 26646 ft 420 kts 269°
2026-05-09 20:03 -34.57174 -59.58681 27022 ft 422 kts 269°
2026-05-09 20:03 -34.57030 -59.62248 27407 ft 424 kts 268°
2026-05-09 20:03 -34.56947 -59.65829 27788 ft 425 kts 267°
2026-05-09 20:04 -34.56894 -59.69426 28137 ft 428 kts 267°
2026-05-09 20:04 -34.56847 -59.73044 28474 ft 431 kts 267°
2026-05-09 20:04 -34.56796 -59.76692 28808 ft 433 kts 267°
2026-05-09 20:04 -34.56740 -59.80361 29144 ft 436 kts 267°
2026-05-09 20:05 -34.56677 -59.84038 29473 ft 438 kts 267°
2026-05-09 20:05 -34.56609 -59.87742 29788 ft 440 kts 267°
2026-05-09 20:05 -34.56537 -59.91473 30058 ft 443 kts 267°
2026-05-09 20:05 -34.56464 -59.95219 30297 ft 447 kts 267°
2026-05-09 20:06 -34.56388 -59.98995 30541 ft 449 kts 267°
2026-05-09 20:06 -34.56310 -60.02780 30867 ft 449 kts 267°
2026-05-09 20:06 -34.56230 -60.06564 31222 ft 448 kts 267°
2026-05-09 20:06 -34.56150 -60.10342 31522 ft 449 kts 267°
2026-05-09 20:07 -34.56069 -60.14128 31797 ft 450 kts 267°
2026-05-09 20:07 -34.55987 -60.17929 32091 ft 451 kts 266°
2026-05-09 20:07 -34.55904 -60.21741 32255 ft 455 kts 266°
2026-05-09 20:07 -34.55819 -60.25601 32424 ft 458 kts 266°
2026-05-09 20:08 -34.55732 -60.29418 33104 ft 448 kts 266°
2026-05-09 20:08 -34.55555 -60.36959 33638 ft 451 kts 266°
2026-05-09 20:08 -34.55468 -60.40788 33772 ft 455 kts 266°
2026-05-09 20:09 -34.55377 -60.44622 34112 ft 454 kts 266°
2026-05-09 20:09 -34.55284 -60.48444 34387 ft 453 kts 265°
2026-05-09 20:09 -34.55191 -60.52278 34420 ft 459 kts 265°
2026-05-09 20:09 -34.55097 -60.56164 34577 ft 461 kts 265°
2026-05-09 20:10 -34.54999 -60.60043 34903 ft 459 kts 265°
2026-05-09 20:10 -34.54898 -60.63901 35272 ft 455 kts 265°
2026-05-09 20:10 -34.54798 -60.67731 35556 ft 454 kts 265°
2026-05-09 20:10 -34.54699 -60.71560 35758 ft 455 kts 265°
2026-05-09 20:11 -34.54599 -60.75392 35948 ft 455 kts 265°
2026-05-09 20:11 -34.54498 -60.79240 36108 ft 457 kts 264°
2026-05-09 20:11 -34.54395 -60.83097 36192 ft 458 kts 264°
2026-05-09 20:12 -34.54183 -60.90810 36211 ft 457 kts 264°
2026-05-09 20:12 -34.53493 -60.98526 36232 ft 464 kts 274°
2026-05-09 20:13 -34.52227 -61.06216 36203 ft 465 kts 274°
2026-05-09 20:13 -34.50965 -61.13845 36230 ft 464 kts 274°
2026-05-09 20:14 -34.49744 -61.21575 36238 ft 464 kts 273°
2026-05-09 20:14 -34.48557 -61.29201 36240 ft 464 kts 273°
2026-05-09 20:15 -34.47345 -61.36952 36227 ft 465 kts 273°
2026-05-09 20:15 -34.46133 -61.44653 36246 ft 466 kts 273°
2026-05-09 20:16 -34.44919 -61.52339 36254 ft 468 kts 273°
2026-05-09 20:16 -34.43684 -61.60091 36267 ft 469 kts 273°
2026-05-09 20:17 -34.42435 -61.67860 36252 ft 471 kts 273°
2026-05-09 20:17 -34.41179 -61.75643 36265 ft 471 kts 274°
2026-05-09 20:18 -34.39919 -61.83431 36260 ft 471 kts 274°
2026-05-09 20:18 -34.38654 -61.91214 36265 ft 471 kts 274°
2026-05-09 20:19 -34.37385 -61.98990 36267 ft 470 kts 272°
2026-05-09 20:19 -34.36115 -62.06753 36269 ft 470 kts 272°
2026-05-09 20:20 -34.34840 -62.14500 36283 ft 470 kts 273°
2026-05-09 20:20 -34.33558 -62.22247 36278 ft 470 kts 273°
2026-05-09 20:21 -34.32272 -62.29983 36273 ft 469 kts 272°
2026-05-09 20:21 -34.30982 -62.37729 36283 ft 469 kts 272°
2026-05-09 20:22 -34.29698 -62.45410 36284 ft 469 kts 272°
2026-05-09 20:22 -34.28398 -62.53151 36256 ft 470 kts 272°
2026-05-09 20:23 -34.27095 -62.60874 36277 ft 470 kts 272°
2026-05-09 20:23 -34.25783 -62.68624 36322 ft 470 kts 272°
2026-05-09 20:24 -34.24466 -62.76375 36295 ft 471 kts 272°
2026-05-09 20:24 -34.23141 -62.84138 36273 ft 472 kts 272°
2026-05-09 20:25 -34.21810 -62.91903 36294 ft 473 kts 272°
2026-05-09 20:25 -34.20471 -62.99684 36302 ft 473 kts 272°
2026-05-09 20:26 -34.19126 -63.07476 36306 ft 474 kts 272°
2026-05-09 20:26 -34.17774 -63.15267 36282 ft 475 kts 271°
2026-05-09 20:27 -34.16414 -63.23076 36304 ft 475 kts 271°
2026-05-09 20:27 -34.15051 -63.30882 36317 ft 476 kts 272°
2026-05-09 20:28 -34.13662 -63.38703 36313 ft 478 kts 272°
2026-05-09 20:28 -34.12124 -63.46532 36289 ft 480 kts 273°
2026-05-09 20:29 -34.09771 -63.58276 36311 ft 480 kts 272°
2026-05-09 20:29 -34.08218 -63.66107 36317 ft 481 kts 272°
2026-05-09 20:30 -34.06657 -63.73971 36329 ft 482 kts 272°
2026-05-09 20:30 -34.05091 -63.81823 36326 ft 482 kts 272°
2026-05-09 20:31 -34.03516 -63.89701 36329 ft 483 kts 272°
2026-05-09 20:31 -34.01938 -63.97581 36327 ft 485 kts 272°
2026-05-09 20:32 -34.00352 -64.05488 36292 ft 485 kts 272°
2026-05-09 20:32 -33.98761 -64.13385 36326 ft 486 kts 272°
2026-05-09 20:33 -33.97162 -64.21297 36332 ft 486 kts 272°
2026-05-09 20:33 -33.95554 -64.29227 36331 ft 487 kts 272°
2026-05-09 20:34 -33.93942 -64.37147 36288 ft 488 kts 272°
2026-05-09 20:34 -33.92323 -64.45072 36327 ft 487 kts 272°
2026-05-09 20:35 -33.90699 -64.52995 36343 ft 488 kts 272°
2026-05-09 20:35 -33.89063 -64.60936 36339 ft 488 kts 272°
2026-05-09 20:36 -33.87424 -64.68869 36337 ft 489 kts 272°
2026-05-09 20:36 -33.85780 -64.76808 36336 ft 489 kts 272°
2026-05-09 20:37 -33.84130 -64.84737 36345 ft 489 kts 272°
2026-05-09 20:37 -33.82470 -64.92673 36341 ft 489 kts 272°
2026-05-09 20:38 -33.80808 -65.00595 36307 ft 488 kts 272°
2026-05-09 20:38 -33.79428 -65.07151 36332 ft 487 kts 272°
2026-05-09 20:39 -33.77764 -65.15040 36360 ft 486 kts 272°
2026-05-09 20:39 -33.76099 -65.22911 36352 ft 485 kts 272°
2026-05-09 20:40 -33.74433 -65.30764 36305 ft 485 kts 272°
2026-05-09 20:40 -33.72761 -65.38608 36336 ft 484 kts 273°
2026-05-09 20:41 -33.70972 -65.46414 36351 ft 485 kts 274°
2026-05-09 20:41 -33.69109 -65.54200 36351 ft 485 kts 274°
2026-05-09 20:42 -33.67253 -65.61981 36309 ft 484 kts 274°
2026-05-09 20:42 -33.65411 -65.69747 36351 ft 483 kts 274°
2026-05-09 20:43 -33.63574 -65.77493 36364 ft 483 kts 274°
2026-05-09 20:43 -33.61732 -65.85243 36363 ft 483 kts 274°
2026-05-09 20:44 -33.59879 -65.93003 36361 ft 483 kts 274°
2026-05-09 20:44 -33.58024 -66.00747 36355 ft 483 kts 275°
2026-05-09 20:45 -33.56165 -66.08487 36353 ft 483 kts 275°
2026-05-09 20:45 -33.54303 -66.16216 36370 ft 483 kts 275°
2026-05-09 20:46 -33.53052 -66.21398 36366 ft 484 kts 275°
2026-05-09 20:46 -33.50569 -66.31617 36162 ft 469 kts 275°
2026-05-09 20:47 -33.49659 -66.35367 35588 ft 470 kts 275°
2026-05-09 20:47 -33.48722 -66.39146 34781 ft 480 kts 277°
2026-05-09 20:47 -33.47594 -66.42954 34040 ft 489 kts 280°
2026-05-09 20:47 -33.46353 -66.46762 33467 ft 490 kts 281°
2026-05-09 20:48 -33.45097 -66.50545 32948 ft 488 kts 281°
2026-05-09 20:48 -33.43866 -66.54321 32496 ft 483 kts 281°
2026-05-09 20:48 -33.42672 -66.58062 32029 ft 480 kts 281°
2026-05-09 20:48 -33.41575 -66.61800 31595 ft 472 kts 277°
2026-05-09 20:49 -33.40623 -66.65546 31108 ft 469 kts 276°
2026-05-09 20:49 -33.39726 -66.69278 30705 ft 466 kts 276°
2026-05-09 20:49 -33.38843 -66.73006 30238 ft 464 kts 276°
2026-05-09 20:49 -33.37961 -66.76703 29780 ft 461 kts 276°
2026-05-09 20:50 -33.37073 -66.80373 29331 ft 457 kts 277°
2026-05-09 20:50 -33.36182 -66.84012 28900 ft 453 kts 277°
2026-05-09 20:50 -33.35292 -66.87617 28476 ft 450 kts 277°
2026-05-09 20:50 -33.34409 -66.91180 28035 ft 445 kts 277°
2026-05-09 20:51 -33.33532 -66.94706 27673 ft 440 kts 277°
2026-05-09 20:51 -33.32665 -66.98193 27257 ft 436 kts 277°
2026-05-09 20:51 -33.31805 -67.01657 26858 ft 432 kts 277°
2026-05-09 20:51 -33.30951 -67.05089 26454 ft 429 kts 277°
2026-05-09 20:52 -33.30105 -67.08486 26061 ft 425 kts 277°
2026-05-09 20:52 -33.29263 -67.11863 25658 ft 422 kts 277°
2026-05-09 20:52 -33.28429 -67.15203 25268 ft 419 kts 277°
2026-05-09 20:52 -33.27597 -67.18535 24871 ft 416 kts 278°
2026-05-09 20:53 -33.26783 -67.21790 24456 ft 413 kts 278°
2026-05-09 20:53 -33.25950 -67.25107 24075 ft 410 kts 278°
2026-05-09 20:53 -33.25124 -67.28293 23771 ft 405 kts 280°
2026-05-09 20:53 -33.24234 -67.31455 23500 ft 398 kts 281°
2026-05-09 20:54 -33.23337 -67.34554 23224 ft 392 kts 281°
2026-05-09 20:54 -33.22450 -67.37613 22953 ft 387 kts 281°
2026-05-09 20:54 -33.21578 -67.40640 22664 ft 383 kts 280°
2026-05-09 20:54 -33.20720 -67.43633 22303 ft 379 kts 280°
2026-05-09 20:55 -33.19874 -67.46601 21924 ft 377 kts 280°
2026-05-09 20:55 -33.19031 -67.49562 21549 ft 375 kts 280°
2026-05-09 20:55 -33.18192 -67.52508 21170 ft 374 kts 281°
2026-05-09 20:55 -33.17359 -67.55432 20773 ft 372 kts 281°
2026-05-09 20:56 -33.16524 -67.58358 20404 ft 371 kts 281°
2026-05-09 20:56 -33.14865 -67.64164 19647 ft 369 kts 281°
2026-05-09 20:56 -33.14036 -67.67060 19272 ft 369 kts 281°
2026-05-09 20:57 -33.13206 -67.69956 18902 ft 368 kts 281°
2026-05-09 20:57 -33.12378 -67.72842 18484 ft 368 kts 281°
2026-05-09 20:57 -33.11606 -67.75739 18074 ft 362 kts 274°
2026-05-09 20:57 -33.11268 -67.78676 17654 ft 355 kts 268°
2026-05-09 20:58 -33.11082 -67.81595 17274 ft 351 kts 266°
2026-05-09 20:58 -33.10922 -67.84496 16894 ft 349 kts 267°
2026-05-09 20:58 -33.10759 -67.87371 16533 ft 347 kts 268°
2026-05-09 20:58 -33.10584 -67.90234 16173 ft 345 kts 268°
2026-05-09 20:59 -33.10399 -67.93075 15820 ft 342 kts 269°
2026-05-09 20:59 -33.10208 -67.95890 15470 ft 340 kts 269°
2026-05-09 20:59 -33.10013 -67.98692 15120 ft 338 kts 270°
2026-05-09 21:00 -33.09617 -68.04234 14428 ft 333 kts 270°
2026-05-09 21:00 -33.09418 -68.06983 14077 ft 331 kts 271°
2026-05-09 21:00 -33.09220 -68.09707 13687 ft 329 kts 271°
2026-05-09 21:00 -33.09022 -68.12411 13328 ft 326 kts 271°
2026-05-09 21:01 -33.08824 -68.15096 12974 ft 323 kts 271°
2026-05-09 21:01 -33.08629 -68.17755 12631 ft 320 kts 271°
2026-05-09 21:01 -33.08434 -68.20393 12282 ft 318 kts 272°
2026-05-09 21:02 -33.08048 -68.25596 11619 ft 313 kts 272°
2026-05-09 21:02 -33.07857 -68.28166 11300 ft 310 kts 272°
2026-05-09 21:02 -33.07666 -68.30726 10968 ft 308 kts 272°
2026-05-09 21:02 -33.07477 -68.33257 10693 ft 305 kts 272°
2026-05-09 21:03 -33.07290 -68.35736 10577 ft 296 kts 272°
2026-05-09 21:03 -33.07108 -68.38143 10446 ft 288 kts 272°
2026-05-09 21:03 -33.06932 -68.40482 10299 ft 281 kts 272°
2026-05-09 21:03 -33.06757 -68.42802 10005 ft 279 kts 272°
2026-05-09 21:04 -33.06584 -68.45091 9724 ft 277 kts 273°
2026-05-09 21:04 -33.06411 -68.47372 9447 ft 275 kts 273°
2026-05-09 21:04 -33.06244 -68.49570 9190 ft 272 kts 273°
2026-05-09 21:04 -33.06071 -68.51837 8919 ft 270 kts 273°
2026-05-09 21:05 -33.05901 -68.54059 8690 ft 266 kts 272°
2026-05-09 21:05 -33.05735 -68.56215 8606 ft 258 kts 272°
2026-05-09 21:05 -33.05576 -68.58283 8484 ft 251 kts 273°
2026-05-09 21:05 -33.05418 -68.60320 8384 ft 242 kts 272°
2026-05-09 21:06 -33.05280 -68.62293 8259 ft 236 kts 270°
2026-05-09 21:06 -33.05249 -68.64230 8206 ft 232 kts 268°
2026-05-09 21:06 -33.05242 -68.66153 7946 ft 231 kts 268°
2026-05-09 21:06 -33.05235 -68.68064 7718 ft 230 kts 269°
2026-05-09 21:07 -33.05222 -68.69965 7479 ft 228 kts 269°
2026-05-09 21:07 -33.05207 -68.71851 7242 ft 227 kts 269°
2026-05-09 21:07 -33.05189 -68.73730 6963 ft 228 kts 269°
2026-05-09 21:07 -33.05170 -68.75646 6496 ft 233 kts 270°
2026-05-09 21:08 -33.05150 -68.77580 6042 ft 234 kts 273°
2026-05-09 21:08 -33.04692 -68.79389 5735 ft 222 kts 313°
2026-05-09 21:08 -33.03458 -68.80271 5718 ft 205 kts 354°
2026-05-09 21:08 -33.02060 -68.80038 5760 ft 212 kts 12°
2026-05-09 21:09 -33.00550 -68.79770 5559 ft 223 kts
2026-05-09 21:09 -32.98996 -68.79641 5284 ft 223 kts
2026-05-09 21:09 -32.97467 -68.79585 4958 ft 215 kts
2026-05-09 21:09 -32.96016 -68.79556 4669 ft 201 kts
2026-05-09 21:10 -32.94666 -68.79529 4396 ft 187 kts
2026-05-09 21:10 -32.93416 -68.79504 4145 ft 173 kts
2026-05-09 21:10 -32.92264 -68.79480 3952 ft 156 kts
2026-05-09 21:10 -32.91214 -68.79458 3716 ft 147 kts
2026-05-09 21:11 -32.90195 -68.79437 3526 ft 145 kts
2026-05-09 21:12 -32.86104 -68.79348 2701 ft 147 kts
2026-05-09 21:12 -32.85066 -68.79330 2496 ft 149 kts
2026-05-09 21:12 -32.84036 -68.79311 2325 ft 147 kts
2026-05-09 21:12 -32.83113 -68.79290 2310 ft 109 kts
2026-05-09 21:13 -32.82585 -68.79278 2312 ft 24 kts
2026-05-09 21:13 -32.82553 -68.79387 2311 ft 16 kts 242°
2026-05-09 21:13 -32.82631 -68.79482 2311 ft 16 kts 224°
2026-05-09 21:13 -32.82672 -68.79579 2310 ft 9 kts 258°
2026-05-09 21:14 -32.82674 -68.79657 2308 ft 9 kts 272°
2026-05-09 21:14 -32.82707 -68.79707 2308 ft 9 kts 186°
2026-05-09 21:14 -32.82769 -68.79708 2308 ft 8 kts 181°
2026-05-09 21:14 -32.82801 -68.79721 2308 ft 5 kts 244°
2026-05-09 21:15 -32.82802 -68.79760 2308 ft 3 kts 271°
2026-05-09 21:15 -32.82801 -68.79775 2308 ft 1 kts 271°